Location: *
(37.5724°S, 58.0067°E)
Time: 05:57:16
(UTC+00:00)

Genesis I - Pass Details

Date: 17 January 2021
Orbit: 489 x 532 km, 64.5° (Epoch: 02 March)

Event Time Altitude Azimuth Distance (km) Brightness Sun altitude
Exits shadow 22:03:03 17° 84° (E) 1,380 5.5 -26.9°
Drops below altitude 10° 22:05:03 10° 113° (ESE) 1,781 6.5 -26.7°
Sets 22:07:45 0° 131° (SE) 2,671 7.9 -26.4°
